| time (UTC) | temp F | wind direction | speed MPH | gust MPH | rain 1hr in | rain 24hr in | rain mn in | humidity % | barometer mb |
| 20260509033002 | 43 | 308 | 5.0 | 18.0 | 0.00 | 0.02 | 0.00 | 76 | 1010.2 |
| 20260509031620 | 43 | 340 | 4.0 | 17.0 | 0.00 | 0.02 | 0.00 | 77 | 1009.9 |
| 20260509030057 | 43 | 297 | 3.0 | 14.0 | 0.00 | 0.02 | 0.00 | 76 | 1009.7 |
| 20260509024553 | 43 | 314 | 3.0 | 12.0 | 0.00 | 0.02 | 0.00 | 73 | 1009.4 |
| 20260509023054 | 44 | 328 | 3.0 | 16.0 | 0.00 | 0.02 | 0.00 | 73 | 1009.0 |
| 20260509021548 | 43 | 354 | 2.0 | 18.0 | 0.00 | 0.02 | 0.00 | 74 | 1008.8 |
| 20260509020045 | 44 | 243 | 1.0 | 15.0 | 0.00 | 0.02 | 0.00 | 74 | 1008.7 |
| 20260509014544 | 43 | 314 | 3.0 | 13.0 | 0.00 | 0.02 | 0.00 | 75 | 1008.5 |
| 20260509013045 | 43 | 312 | 2.0 | 14.0 | 0.00 | 0.02 | 0.00 | 76 | 1008.3 |
| 20260509011542 | 44 | 299 | 2.0 | 18.0 | 0.00 | 0.02 | 0.00 | 75 | 1008.0 |
| 20260509010035 | 44 | 301 | 1.0 | 8.0 | 0.00 | 0.02 | 0.00 | 75 | 1008.0 |
| 20260509004541 | 45 | 308 | 3.0 | 15.0 | 0.00 | 0.02 | 0.00 | 75 | 1007.8 |
| 20260509003030 | 46 | 323 | 5.0 | 17.0 | 0.00 | 0.02 | 0.00 | 74 | 1007.8 |
| 20260509001527 | 46 | 288 | 2.0 | 16.0 | 0.00 | 0.02 | 0.00 | 77 | 1007.7 |
| 20260509000025 | 46 | 281 | 4.0 | 15.0 | 0.00 | 0.02 | 0.00 | 76 | 1007.7 |
| 20260508234520 | 47 | 332 | 2.0 | 16.0 | 0.00 | 0.02 | 0.00 | 79 | 1007.6 |
| 20260508233015 | 49 | 294 | 3.0 | 15.0 | 0.00 | 0.02 | 0.00 | 82 | 1007.3 |
| 20260508231511 | 50 | 305 | 3.0 | 12.0 | 0.00 | 0.02 | 0.00 | 81 | 1006.9 |
| 20260508230009 | 50 | 295 | 4.0 | 13.0 | 0.00 | 0.02 | 0.00 | 82 | 1006.8 |
| 20260508224506 | 51 | 300 | 2.0 | 14.0 | 0.00 | 0.02 | 0.00 | 83 | 1006.7 |
| 20260508223004 | 52 | 290 | 2.0 | 12.0 | 0.00 | 0.02 | 0.00 | 84 | 1006.5 |
| 20260508221600 | 53 | 299 | 1.0 | 7.0 | 0.00 | 0.02 | 0.00 | 87 | 1006.3 |
| 20260508220055 | 54 | 327 | 2.0 | 11.0 | 0.00 | 0.02 | 0.00 | 89 | 1006.1 |
| 20260508214608 | 54 | 309 | 1.0 | 8.0 | 0.00 | 0.02 | 0.00 | 89 | 1006.0 |
| 20260508213101 | 54 | 306 | 2.0 | 11.0 | 0.00 | 0.02 | 0.00 | 89 | 1005.9 |
| 20260508211556 | 54 | 300 | 2.0 | 14.0 | 0.00 | 0.02 | 0.00 | 89 | 1005.9 |
| 20260508210049 | 55 | 296 | 1.0 | 12.0 | 0.00 | 0.02 | 0.00 | 88 | 1005.9 |
| 20260508204545 | 56 | 18 | 1.0 | 11.0 | 0.00 | 0.02 | 0.00 | 87 | 1006.0 |
| 20260508203049 | 57 | 309 | 1.0 | 6.0 | 0.00 | 0.02 | 0.00 | 87 | 1005.9 |
| 20260508201553 | 57 | 312 | 0.0 | 6.0 | 0.00 | 0.02 | 0.00 | 89 | 1005.8 |
| 20260508200043 | 57 | 286 | 0.0 | 5.0 | 0.00 | 0.02 | 0.02 | 90 | 1005.5 |
| 20260508194636 | 57 | 280 | 0.0 | 7.0 | 0.00 | 0.02 | 0.02 | 89 | 1005.2 |
| 20260508193035 | 58 | 289 | 0.0 | 0.0 | 0.00 | 0.02 | 0.02 | 88 | 1005.0 |
| 20260508191535 | 58 | 274 | 0.0 | 0.0 | 0.00 | 0.02 | 0.02 | 88 | 1005.0 |
| 20260508190041 | 58 | 286 | 0.0 | 0.0 | 0.00 | 0.02 | 0.02 | 88 | 1004.8 |
| 20260508184535 | 58 | 287 | 0.0 | 0.0 | 0.00 | 0.02 | 0.02 | 87 | 1004.8 |
| 20260508183036 | 58 | 303 | 0.0 | 3.0 | 0.00 | 0.02 | 0.02 | 86 | 1004.6 |
| 20260508181552 | 59 | 12 | 0.0 | 4.0 | 0.00 | 0.02 | 0.02 | 85 | 1004.1 |
| 20260508180032 | 59 | 54 | 3.0 | 11.0 | 0.01 | 0.02 | 0.02 | 84 | 1004.4 |
| 20260508174531 | 59 | 57 | 1.0 | 11.0 | 0.01 | 0.02 | 0.02 | 83 | 1005.0 |
| 20260508173029 | 61 | 337 | 0.0 | 9.0 | 0.01 | 0.02 | 0.02 | 80 | 1006.1 |
| 20260508171528 | 62 | 308 | 1.0 | 11.0 | 0.01 | 0.02 | 0.02 | 76 | 1006.4 |
| 20260508170027 | 63 | 303 | 3.0 | 9.0 | 0.00 | 0.01 | 0.01 | 73 | 1005.9 |
| 20260508164535 | 64 | 15 | 0.0 | 10.0 | 0.01 | 0.01 | 0.01 | 71 | 1004.7 |
| 20260508163025 | 65 | 324 | 0.0 | 6.0 | 0.01 | 0.01 | 0.01 | 71 | 1004.2 |
| 20260508161524 | 65 | 326 | 0.0 | 1.0 | 0.01 | 0.01 | 0.01 | 69 | 1003.9 |
| 20260508160034 | 67 | 341 | 0.0 | 6.0 | 0.01 | 0.01 | 0.01 | 65 | 1003.8 |
| 20260508154522 | 73 | 285 | 2.0 | 6.0 | 0.00 | 0.00 | 0.00 | 43 | 1004.3 |
| 20260508153020 | 74 | 187 | 0.0 | 4.0 | 0.00 | 0.00 | 0.00 | 42 | 1003.4 |
| 20260508151518 | 74 | 253 | 0.0 | 3.0 | 0.00 | 0.00 | 0.00 | 41 | 1003.7 |
| 20260508150020 | 75 | 222 | 0.0 | 6.0 | 0.00 | 0.00 | 0.00 | 39 | 1003.9 |
| 20260508144516 | 77 | 213 | 0.0 | 6.0 | 0.00 | 0.00 | 0.00 | 38 | 1003.8 |
| 20260508143016 | 77 | 199 | 0.0 | 6.0 | 0.00 | 0.00 | 0.00 | 37 | 1003.8 |
| 20260508141514 | 77 | 154 | 1.0 | 8.0 | 0.00 | 0.00 | 0.00 | 37 | 1004.1 |
| 20260508140012 | 77 | 218 | 1.0 | 8.0 | 0.00 | 0.00 | 0.00 | 36 | 1004.3 |
| 20260508134512 | 78 | 202 | 2.0 | 10.0 | 0.00 | 0.00 | 0.00 | 36 | 1004.6 |
| 20260508133013 | 78 | 191 | 1.0 | 6.0 | 0.00 | 0.00 | 0.00 | 36 | 1004.9 |
| 20260508131506 | 78 | 253 | 0.0 | 8.0 | 0.00 | 0.00 | 0.00 | 37 | 1005.2 |
| 20260508130004 | 78 | 216 | 1.0 | 8.0 | 0.00 | 0.00 | 0.00 | 36 | 1005.5 |
| 20260508124501 | 78 | 170 | 0.0 | 6.0 | 0.00 | 0.00 | 0.00 | 35 | 1005.7 |
| 20260508123059 | 77 | 235 | 1.0 | 9.0 | 0.00 | 0.00 | 0.00 | 35 | 1005.9 |
| 20260508121605 | 77 | 189 | 1.0 | 7.0 | 0.00 | 0.00 | 0.00 | 35 | 1006.1 |
| 20260508114554 | 77 | 130 | 3.0 | 10.0 | 0.00 | 0.00 | 0.00 | 36 | 1006.5 |
| 20260508113057 | 77 | 250 | 0.0 | 7.0 | 0.00 | 0.00 | 0.00 | 37 | 1006.9 |
| 20260508111557 | 76 | 141 | 1.0 | 10.0 | 0.00 | 0.00 | 0.00 | 36 | 1007.0 |
| 20260508110058 | 76 | 120 | 2.0 | 9.0 | 0.00 | 0.00 | 0.00 | 36 | 1007.1 |
| 20260508104545 | 75 | 158 | 0.0 | 7.0 | 0.00 | 0.00 | 0.00 | 36 | 1007.3 |
| 20260508103055 | 75 | 156 | 0.0 | 7.0 | 0.00 | 0.00 | 0.00 | 36 | 1007.6 |
| 20260508101543 | 75 | 205 | 2.0 | 9.0 | 0.00 | 0.00 | 0.00 | 36 | 1007.9 |
| 20260508100037 | 74 | 185 | 1.0 | 7.0 | 0.00 | 0.00 | 0.00 | 35 | 1008.0 |
| 20260508094539 | 74 | 154 | 2.0 | 7.0 | 0.00 | 0.00 | 0.00 | 34 | 1008.2 |
| 20260508093031 | 73 | 236 | 5.0 | 14.0 | 0.00 | 0.00 | 0.00 | 35 | 1008.5 |
| 20260508091528 | 73 | 134 | 2.0 | 8.0 | 0.00 | 0.00 | 0.00 | 34 | 1008.7 |
| 20260508090029 | 73 | 164 | 1.0 | 6.0 | 0.00 | 0.00 | 0.00 | 34 | 1009.0 |
| 20260508084524 | 72 | 164 | 0.0 | 7.0 | 0.00 | 0.00 | 0.00 | 34 | 1009.3 |
| 20260508083020 | 72 | 248 | 0.0 | 5.0 | 0.00 | 0.00 | 0.00 | 35 | 1009.4 |
| 20260508081520 | 71 | 163 | 2.0 | 7.0 | 0.00 | 0.00 | 0.00 | 35 | 1009.6 |
| 20260508080022 | 71 | 146 | 1.0 | 6.0 | 0.00 | 0.00 | 0.00 | 34 | 1009.7 |
| 20260508074514 | 70 | 125 | 0.0 | 4.0 | 0.00 | 0.00 | 0.00 | 33 | 1009.9 |
| 20260508073012 | 70 | 159 | 1.0 | 5.0 | 0.00 | 0.00 | 0.00 | 32 | 1010.1 |
| 20260508071509 | 69 | 156 | 2.0 | 8.0 | 0.00 | 0.00 | 0.00 | 33 | 1010.2 |
| 20260508070007 | 69 | 154 | 2.0 | 6.0 | 0.00 | 0.00 | 0.00 | 33 | 1010.3 |
| 20260508064505 | 68 | 205 | 1.0 | 6.0 | 0.00 | 0.00 | 0.00 | 34 | 1010.4 |
| 20260508063103 | 67 | 168 | 1.0 | 5.0 | 0.00 | 0.00 | 0.00 | 36 | 1010.6 |
| 20260508061600 | 65 | 144 | 1.0 | 4.0 | 0.00 | 0.00 | 0.00 | 37 | 1010.6 |
| 20260508060057 | 65 | 166 | 0.0 | 5.0 | 0.00 | 0.00 | 0.00 | 35 | 1010.9 |
| 20260508054602 | 65 | 142 | 0.0 | 4.0 | 0.00 | 0.00 | 0.00 | 35 | 1011.5 |
| 20260508053054 | 65 | 118 | 1.0 | 7.0 | 0.00 | 0.00 | 0.00 | 35 | 1011.2 |
| 20260508051553 | 64 | 141 | 1.0 | 4.0 | 0.00 | 0.00 | 0.00 | 37 | 1011.3 |
| 20260508050044 | 63 | 98 | 0.0 | 0.0 | 0.00 | 0.00 | 0.00 | 37 | 1011.7 |
| 20260508044541 | 62 | 122 | 0.0 | 1.0 | 0.00 | 0.00 | 0.00 | 39 | 1011.9 |
| 20260508043041 | 60 | 132 | 0.0 | 3.0 | 0.00 | 0.00 | 0.00 | 42 | 1011.7 |
| 20260508041532 | 59 | 129 | 0.0 | 2.0 | 0.00 | 0.00 | 0.00 | 43 | 1011.7 |
| 20260508040038 | 58 | 118 | 0.0 | 3.0 | 0.00 | 0.00 | 0.00 | 41 | 1012.0 |
| 20260508034529 | 57 | 103 | 0.0 | 0.0 | 0.00 | 0.00 | 0.00 | 44 | 1012.2 |